Regional Weather Roundup
Issued by NWS

Home | Current Version | Previous Version | Text Only | Print | Product List | Glossary On
Versions: 1 2 3 4 5 6 7 8 9 10 11 12 13 14 15 16 17 18 19 20 21 22 23 24 25 26 27 28 29 30 31 32 33 34 35 36 37 38 39 40 41 42 43 44 45 46 47 48 49 50
000
ASUS42 KFFC 180103
RWRGA
WEATHER ROUNDUP FOR GEORGIA
NATIONAL WEATHER SERVICE PEACHTREE CITY GA
900 PM EDT WED SEP 17 2014

NOTE: "FAIR" INDICATES FEW OR NO CLOUDS BELOW 12,000 FEET WITH NO
SIGNIFICANT WEATHER AND/OR OBSTRUCTIONS TO VISIBILITY.

* = USE WITH CAUTION. THE STATIONS MARKED WITH AN ASTERISK MAY NOT
REPORT WEATHER SUCH AS PRECIPITATION, FOG, OR THUNDER AND ARE NOT
QUALITY CONTROLLED BY NWS.

THE REMARK "TC" DENOTES TEMPERATURE READING IN DEGREES CELSIUS.

GAZ001>058-180200-
NORTH GEORGIA

CITY           SKY/WX    TMP DP  RH WIND       PRES   REMARKS
ATLANTA        MOCLDY    75  57  53 NW9       29.94R
ATHENS         PTCLDY    74  68  81 NE5       29.93R
CHAMBLEE       PTCLDY    71  58  63 NW6       29.94R
PEACHTREE CITY PTCLDY    69  62  78 NW5       29.93R
ROME           PTCLDY    70  58  65 N3        29.94R
WEST ATLANTA   PTCLDY    72  59  63 N3        29.94R
GAINESVILLE    PTCLDY    70  57  63 W3        29.96R
CARTERSVILLE   PTCLDY    67  59  75 CALM      29.94R


CITY           SKY/WX    TMP DP  RH WIND       PRES   REMARKS
DALTON*        PTCLDY    64  61  88 CALM      29.96R
LAWRENCEVILLE* CLEAR    N/A N/A N/A CALM      29.93R
KENNESAW*      CLEAR     70  57  64 CALM      29.96R
$$

GAZ059>098-102>109-180200-
CENTRAL GEORGIA

CITY           SKY/WX    TMP DP  RH WIND       PRES   REMARKS
AUGUSTA-BUSH   PTCLDY    70  69  97 E3        29.91R
AUGUSTA-DANIEL PTCLDY    73  70  90 E7        29.93R
COLUMBUS       CLEAR     81  65  58 NW7       29.90R
MACON          CLEAR     73  71  93 CALM      29.89R


CITY           SKY/WX    TMP DP  RH WIND       PRES   REMARKS
LAGRANGE*      CLEAR     76  69  78 NW3       29.92R
SYLVANIA*      CLOUDY    73  72  96 E5        29.91R
MILLEDGEVILLE* CLEAR     73  72  94 CALM      29.89R
$$

GAZ099>101-110>166-180200-
SOUTH GEORGIA

CITY           SKY/WX    TMP DP  RH WIND       PRES   REMARKS
SAVANNAH       CLOUDY    76  72  87 E6        29.89S
VALDOSTA       CLEAR     76  73  91 CALM      29.89R
ALMA           PTCLDY    77  70  79 CALM      29.88R
ST SIMONS      PTCLDY    79  72  79 SE3       29.88R
FT STEWART     MOCLDY    75  70  83 NE1       29.88R
ALBANY         PTCLDY    79  71  76 W5        29.91R
BRUNSWICK        N/A     75  72  88 CALM      29.89S


CITY           SKY/WX    TMP DP  RH WIND       PRES   REMARKS
BAINBRIDGE*    CLOUDY    79  75  89 SW3       29.90R
MOULTRIE*      PTCLDY    81  73  78 CALM      29.90R
VIDALIA*       PTCLDY    77  72  83 CALM      29.88S
WAYCROSS*      LGT RAIN  76  69  77 SW26G39     N/A
DOUGLAS*       MOCLDY    73  72  94 CALM      29.90S
$$



USA.gov is the U.S. government's official web portal to all federal, state and local government web resources and services.